Terminal Aerodrome Forecast
Issued by NWS Mt. Holly, NJ

Home | Current Version | Previous Version | Text Only | Print | Product List | Glossary On
Versions: 1 2 3 4 5 6 7 8 9 10 11 12 13 14 15 16 17 18 19 20
760
FTUS41 KPHI 230811 AAC
TAFACY
TAF AMD
KACY 230811Z 2308/2406 VRB05KT P6SM SCT035
      TEMPO 2309/2311 5SM BR BKN025
     FM231100 32008KT P6SM BKN050
     FM231700 30008KT P6SM SCT050
     FM240000 VRB03KT P6SM SKC=

USA.gov is the U.S. government's official web portal to all federal, state and local government web resources and services.